This is the latest recevied weather packets stored in our database for station/object iz1wiy-2. If no packets are shown the sender has not sent any weather packets the latest 1 day(s).
| Time | Temp. | Humidity | Pressure | Rain* | Wind** | Luminosity | Snow |
|---|---|---|---|---|---|---|---|
| 1777992003 | 19.44° C | 76% | 1012.1 hPa | 0 mm | 2.24 m/s, 197° | - | - |
| 1777991703 | 19.44° C | 76% | 1012.1 hPa | 0 mm | 2.24 m/s, 201° | - | - |
| 1777991403 | 19.44° C | 76% | 1012 hPa | 0 mm | 2.68 m/s, 202° | - | - |
| 1777991103 | 19.44° C | 76% | 1012.1 hPa | 0 mm | 3.13 m/s, 200° | - | - |
| 1777990803 | 19.44° C | 77% | 1011.9 hPa | 0 mm | 3.13 m/s, 200° | - | - |
| 1777990503 | 19.44° C | 77% | 1012 hPa | 0 mm | 2.68 m/s, 202° | - | - |
| 1777990203 | 19.44° C | 77% | 1012 hPa | 0 mm | 2.24 m/s, 206° | - | - |
| 1777989903 | 19.44° C | 77% | 1012.1 hPa | 0 mm | 2.24 m/s, 210° | - | - |
| 1777989603 | 19.44° C | 77% | 1012.1 hPa | 0 mm | 2.24 m/s, 209° | - | - |
| 1777989303 | 19.44° C | 78% | 1012.1 hPa | 0 mm | 2.68 m/s, 211° | - | - |
| 1777989003 | 19.44° C | 78% | 1012.2 hPa | 0 mm | 2.68 m/s, 207° | - | - |
| 1777988703 | 19.44° C | 78% | 1012.2 hPa | 0 mm | 2.68 m/s, 207° | - | - |
| 1777988403 | 19.44° C | 79% | 1012.2 hPa | 0 mm | 3.13 m/s, 210° | - | - |
| 1777988103 | 18.89° C | 79% | 1012.3 hPa | 0 mm | 3.58 m/s, 205° | - | - |
| 1777987803 | 18.89° C | 79% | 1012.3 hPa | 0 mm | 3.13 m/s, 202° | - | - |
| 1777987503 | 18.33° C | 80% | 1012.3 hPa | 0 mm | 2.68 m/s, 203° | - | - |
| 1777987203 | 18.89° C | 80% | 1012.4 hPa | 0 mm | 2.68 m/s, 208° | - | - |
| 1777986903 | 18.89° C | 80% | 1012.5 hPa | 0 mm | 2.68 m/s, 208° | - | - |
| 1777986603 | 18.33° C | 79% | 1012.5 hPa | 0 mm | 2.68 m/s, 208° | - | - |
| 1777986303 | 18.89° C | 80% | 1012.4 hPa | 0 mm | 2.68 m/s, 210° | - | - |
| 1777986003 | 18.89° C | 80% | 1012.4 hPa | 0 mm | 3.13 m/s, 208° | - | - |
| 1777985703 | 18.89° C | 80% | 1012.4 hPa | 0 mm | 3.13 m/s, 204° | - | - |
| 1777985403 | 18.89° C | 80% | 1012.4 hPa | 0 mm | 3.58 m/s, 201° | - | - |
| 1777985103 | 18.89° C | 80% | 1012.4 hPa | 0 mm | 3.13 m/s, 202° | - | - |
| 1777984803 | 18.89° C | 80% | 1012.5 hPa | 0 mm | 3.13 m/s, 201° | - | - |
* Rain latest hour (hover to see other rain measurements)
** Current wind speed in m/s (hover to see current wind gust speed)